Terminal Aerodrome Forecast
Issued by NWS Wilmington, OH

Current Version | Previous Version | Graphics & Text | Print | Product List | Glossary On
Versions: 1 2 3 4 5 6 7 8 9 10 11 12 13 14 15 16 17 18 19 20 21 22 23 24 25 26
000
FTUS41 KILN 141400 AAA
TAFCVG
TAF AMD
KCVG 141456Z 1415/1518 21018G30KT P6SM VCSH OVC050
     FM141800 23015G25KT P6SM VCTS BKN025CB OVC040
     FM142200 29014G25KT P6SM -RA SCT010 OVC025
     FM150200 33018G28KT 5SM -RA BR OVC008
     FM150800 34018G26KT 4SM -SN BKN006
     FM151200 34016G25KT P6SM SCT020=

USA.gov is the U.S. government's official web portal to all federal, state and local government web resources and services.